Waarnemingen

Advertentie
Mijn weer
Saarbrücken-Ensheim, Duitsland (10708): temperatuur & dauwpunt: 18.05.2017 04:00:00 - 24.05.2017 04:00:00 (CEST)Saarbrücken-Ensheim, Duitsland (10708): temperatuur 5cm & temperatuur -5cm: 18.05.2017 04:00:00 - 24.05.2017 04:00:00 (CEST)Saarbrücken-Ensheim, Duitsland (10708): temperatuur -20cm & temperatuur -100cm: 18.05.2017 04:00:00 - 24.05.2017 04:00:00 (CEST)Saarbrücken-Ensheim, Duitsland (10708): windsnelheid & windstoten: 18.05.2017 04:00:00 - 24.05.2017 04:00:00 (CEST)Saarbrücken-Ensheim, Duitsland (10708): windrichting: 18.05.2017 04:00:00 - 24.05.2017 04:00:00 (CEST)Saarbrücken-Ensheim, Duitsland (10708): luchtdruk: 18.05.2017 04:00:00 - 24.05.2017 04:00:00 (CEST)Saarbrücken-Ensheim, Duitsland (10708): zicht: 18.05.2017 04:00:00 - 24.05.2017 04:00:00 (CEST)Saarbrücken-Ensheim, Duitsland (10708): Zonneschijnduur: 18.05.2017 04:00:00 - 24.05.2017 04:00:00 (CEST)Saarbrücken-Ensheim, Duitsland (10708): neerslag: 18.05.2017 04:00:00 - 24.05.2017 04:00:00 (CEST)
Datum & Tijd tt [°C] td [°C] tt 5cm [°C] tt -5cm [°C] tt -20cm [°C] tt -100cm [°C] ff [km/u] ff [kn] fx [km/u] fx [kn] dd ppp [hPa] vv [km] sd [min] rr [mm]
24.05.2017 04:00:00 11,5 7,8 8,3 15,2 19,4 14,0 5 3 12 6 ONO 1024,1 50 0 0,0
24.05.2017 03:00:00 13,6 7,9 10,9 16,0 19,9 14,0 9 5 22 12 NNO 1023,7 50 0 0,0
24.05.2017 02:00:00 14,6 8,7 11,9 16,9 20,4 14,0 9 5 21 11 NNO 1023,3 50 0 0,0
24.05.2017 01:00:00 15,2 8,9 13,5 17,7 21,0 14,0 13 7 25 13 NNW 1023,1 10 0 0,0
24.05.2017 00:00:00 16,5 9,9 14,5 18,8 21,6 14,0 16 9 28 15 NNW 1022,6 50 0 0,0
23.05.2017 23:00:00 16,7 10,6 14,2 20,1 22,2 14,0 15 8 27 15 NW 1021,9 10 0 0,0
23.05.2017 22:00:00 18,7 10,7 16,5 21,8 22,7 14,0 12 7 31 17 NW 1020,8 50 0 0,0
23.05.2017 21:00:00 20,1 11,7 18,7 23,9 23,2 14,0 20 11 38 20 WNW 1019,7 50 32 0,0
23.05.2017 20:00:00 21,6 12,3 21,0 26,4 23,5 14,0 23 13 36 20 W 1019,0 50 12 0,0
23.05.2017 19:00:00 22,5 11,1 23,0 29,0 23,5 13,9 20 11 36 20 W 1018,4 50 48 0,0
23.05.2017 18:00:00 23,5 9,3 26,6 31,4 23,3 13,9 22 12 39 21 W 1018,5 60 60 0,0
23.05.2017 17:00:00 23,4 10,0 27,1 32,3 22,8 13,9 26 14 40 22 WNW 1018,2 10 55 0,0
23.05.2017 16:00:00 23,4 11,8 27,3 32,3 22,2 13,9 22 12 40 21 WNW 1018,3 50 46 0,0
23.05.2017 15:00:00 23,5 11,5 29,2 32,1 21,5 13,9 23 12 37 20 W 1018,0 45 53 0,0
23.05.2017 14:00:00 22,9 12,7 27,2 30,5 20,7 13,9 22 12 35 19 WNW 1018,2 10 45 0,0
23.05.2017 13:00:00 22,7 11,7 26,7 30,7 19,7 13,9 22 12 35 19 W 1018,1 40 60 0,0
23.05.2017 12:00:00 21,8 12,0 26,6 27,9 18,7 13,9 18 10 29 16 NW 1018,5 35 60 0,0
23.05.2017 11:00:00 20,1 12,0 24,3 24,6 18,0 13,9 11 6 16 9 W 1018,3 30 60 0,0
23.05.2017 10:00:00 17,9 12,4 22,2 21,3 17,4 13,9 10 5 15 8 W 1018,3 30 60 0,0
23.05.2017 09:00:00 17,0 12,9 17,8 17,9 17,3 13,8 8 4 9 5 WZW 1018,1 10 60 0,0
23.05.2017 08:00:00 14,4 11,1 14,2 15,4 17,4 13,8 5 3 8 4 ZW 1018,3 35 3 0,0
23.05.2017 07:00:00 13,5 10,7 12,1 14,7 17,7 13,8 1 1 5 3 ZZW 1017,6 35 0 0,0
23.05.2017 06:00:00 12,2 9,5 9,4 14,5 18,1 13,8 4 2 8 4 - 1017,5 10 0 0,0
23.05.2017 05:00:00 12,3 10,0 10,0 15,1 18,5 13,8 5 3 8 4 ONO 1016,9 10 0 0,0
23.05.2017 04:00:00 12,9 10,3 11,1 15,8 18,9 13,8 5 3 9 5 O 1017,0 10 0 0,0
23.05.2017 03:00:00 14,1 10,3 11,6 16,5 19,3 13,8 4 2 9 5 ONO 1017,0 50 0 0,0
23.05.2017 02:00:00 14,6 10,3 12,3 17,1 19,7 13,8 5 3 14 7 ONO 1017,1 10 0 0,0
23.05.2017 01:00:00 14,3 10,3 12,4 17,7 20,2 13,8 8 5 13 7 O 1017,3 60 0 0,0
23.05.2017 00:00:00 15,0 10,9 13,0 18,7 20,8 13,8 9 5 13 7 O 1017,2 60 0 0,0
22.05.2017 23:00:00 14,8 11,2 13,9 19,6 21,4 13,8 9 5 13 7 O 1017,0 60 0 0,0
22.05.2017 22:00:00 17,4 10,6 15,2 21,4 22,0 13,8 8 5 12 7 ONO 1016,6 60 0 0,0
22.05.2017 21:00:00 18,7 11,8 16,9 23,7 22,4 13,8 4 2 5 3 O 1015,8 60 14 0,0
22.05.2017 20:00:00 21,2 9,8 20,1 26,1 22,7 13,8 5 3 13 7 OZO 1015,5 10 52 0,0
22.05.2017 19:00:00 22,7 7,6 26,5 29,3 22,6 13,8 8 4 15 8 ZO 1015,5 10 60 0,0
22.05.2017 18:00:00 21,8 9,0 23,2 30,5 22,3 13,8 5 3 21 11 Z 1015,9 50 37 0,0
22.05.2017 17:00:00 22,7 9,7 29,4 33,0 21,7 13,8 7 4 24 13 O 1015,9 50 59 0,0
22.05.2017 16:00:00 22,2 10,0 29,7 33,7 20,8 13,8 13 7 24 13 - 1016,5 10 60 0,0
22.05.2017 15:00:00 21,8 10,6 28,1 32,3 19,8 13,8 11 6 24 13 ONO 1016,9 50 59 0,0
22.05.2017 14:00:00 21,1 8,9 26,3 31,2 18,7 13,8 11 6 30 16 O 1017,2 10 60 0,0
22.05.2017 13:00:00 20,5 9,0 26,6 28,9 17,5 13,8 15 8 28 15 O 1017,7 10 60 0,0
22.05.2017 12:00:00 19,7 9,3 25,3 25,8 16,5 13,8 19 11 29 16 OZO 1018,5 50 60 0,0
22.05.2017 11:00:00 18,7 10,0 22,7 22,2 15,7 13,8 18 10 25 14 OZO 1018,8 50 60 0,0
22.05.2017 10:00:00 17,1 10,6 20,1 18,1 15,2 13,8 17 9 26 14 O 1019,2 50 60 0,0
22.05.2017 09:00:00 14,8 9,5 16,3 14,8 15,0 13,8 14 8 21 11 ONO 1019,5 50 60 0,0
22.05.2017 08:00:00 13,3 8,9 13,7 12,5 15,1 13,8 10 5 22 12 ONO 1019,8 50 60 0,0
22.05.2017 07:00:00 10,6 8,1 10,2 11,1 15,4 13,8 13 7 19 10 NO 1020,2 10 39 0,0
22.05.2017 06:00:00 8,9 7,0 7,5 11,2 15,8 13,8 11 6 21 11 NO 1020,4 50 0 0,0
22.05.2017 05:00:00 9,6 7,2 8,1 11,6 16,2 13,8 12 6 21 11 ONO 1020,3 50 0 0,0
22.05.2017 04:00:00 9,7 7,2 7,9 12,1 16,7 13,8 12 6 16 9 ONO 1020,6 50 0 0,0
22.05.2017 03:00:00 10,1 7,2 8,3 12,8 17,1 13,8 11 6 16 9 NO 1021,2 10 0 0,0
22.05.2017 02:00:00 10,6 7,1 8,3 13,5 17,6 13,8 9 5 15 8 NO 1021,5 50 0 0,0
22.05.2017 01:00:00 11,7 7,2 9,8 14,4 18,2 13,8 9 5 15 8 ONO 1021,7 10 0 0,0
22.05.2017 00:00:00 12,7 7,5 9,9 15,5 18,8 13,8 11 6 18 10 ONO 1021,8 10 0 0,0
21.05.2017 23:00:00 12,7 7,4 11,1 16,9 19,4 13,8 10 6 16 8 ONO 1022,1 50 0 0,0
21.05.2017 22:00:00 13,3 7,9 11,3 18,7 20,0 13,8 10 5 21 11 NO 1022,5 50 4 0,0
21.05.2017 21:00:00 16,2 7,8 15,7 20,8 20,4 13,8 9 5 18 10 ONO 1022,2 50 43 0,0
21.05.2017 20:00:00 17,3 7,4 16,9 23,3 20,7 13,8 14 7 27 15 NO 1022,4 50 51 0,0
21.05.2017 19:00:00 19,3 7,5 22,2 26,5 20,7 13,8 13 7 26 14 NO 1022,4 10 51 0,0
21.05.2017 18:00:00 19,5 5,8 25,4 28,6 20,4 13,9 13 7 24 13 O 1022,8 50 47 0,0
21.05.2017 17:00:00 19,7 7,3 27,3 31,0 19,7 13,9 17 9 28 15 O 1023,2 50 58 0,0
21.05.2017 16:00:00 19,3 6,5 25,5 30,6 18,7 13,9 11 6 28 15 O 1024,0 50 55 0,0
21.05.2017 15:00:00 18,8 6,7 27,4 30,4 17,6 13,9 14 7 26 14 OZO 1024,6 60 60 0,0
21.05.2017 14:00:00 17,9 6,5 23,9 27,1 16,5 13,9 14 7 24 13 OZO 1025,3 60 44 0,0
21.05.2017 13:00:00 18,3 7,5 25,4 26,1 15,4 13,9 13 7 24 13 O 1025,9 10 59 0,0
21.05.2017 12:00:00 17,3 7,7 22,2 22,3 14,4 13,9 9 5 23 13 - 1026,8 10 60 0,0
21.05.2017 11:00:00 16,0 7,8 19,7 18,9 13,7 13,9 13 7 22 12 O 1027,0 10 60 0,0
21.05.2017 10:00:00 14,2 7,2 16,6 16,1 13,1 13,9 13 7 21 11 O 1027,6 10 60 0,0
21.05.2017 09:00:00 13,0 8,7 12,2 13,3 12,8 13,9 9 5 12 6 ONO 1027,5 60 60 0,0
21.05.2017 08:00:00 10,3 8,3 9,7 10,1 12,8 13,9 6 3 11 6 O 1027,7 50 60 0,0
21.05.2017 07:00:00 7,3 7,3 6,8 8,1 13,0 13,9 4 2 9 5 - 1027,9 10 57 0,0
21.05.2017 06:00:00 5,1 5,1 2,3 8,0 13,4 13,9 1 0 4 2 O 1028,1 25 0 0,0
21.05.2017 05:00:00 5,2 5,1 2,6 8,4 13,7 13,9 2 1 4 2 O 1028,0 10 0 0,0
21.05.2017 04:00:00 5,9 5,6 3,1 8,9 14,1 13,9 2 1 5 3 O 1028,1 30 0 0,0
21.05.2017 03:00:00 6,4 6,1 3,4 9,4 14,5 13,9 5 3 5 3 O 1028,0 10 0 0,0
21.05.2017 02:00:00 6,5 6,2 3,8 10,0 14,9 13,9 5 3 5 3 O 1027,8 40 0 0,0
21.05.2017 01:00:00 7,1 6,4 4,3 10,7 15,3 13,9 5 3 5 3 O 1027,9 40 0 0,0
21.05.2017 00:00:00 7,9 6,9 5,0 11,5 15,8 13,9 3 2 9 5 OZO 1027,3 40 0 0,0
20.05.2017 23:00:00 8,4 6,9 5,7 12,6 16,3 13,9 1 1 8 4 OZO 1027,0 40 0 0,0
20.05.2017 22:00:00 9,3 6,8 6,5 14,0 16,7 13,9 4 2 5 3 ZW 1026,6 40 9 0,0
20.05.2017 21:00:00 13,1 7,0 9,6 15,8 17,0 14,0 3 2 9 5 ZO 1025,6 40 49 0,0
20.05.2017 20:00:00 13,2 6,7 11,5 17,7 17,1 14,0 9 5 22 12 WZW 1025,3 10 19 0,0
20.05.2017 19:00:00 15,3 5,9 17,3 20,4 17,0 14,0 11 6 19 10 ZW 1024,5 40 55 0,0
20.05.2017 18:00:00 15,3 5,8 19,3 20,8 16,6 14,0 11 6 28 15 W 1024,3 40 41 0,0
20.05.2017 17:00:00 15,0 6,6 19,2 22,1 16,1 14,0 13 7 24 13 ZZW 1024,1 10 50 0,0
20.05.2017 16:00:00 14,1 6,1 17,4 20,4 15,7 14,0 19 10 29 16 ZW 1024,0 40 20 0,0
20.05.2017 15:00:00 12,9 7,3 14,4 17,9 15,5 14,0 18 10 26 14 WZW 1023,7 40 13 0,0
20.05.2017 14:00:00 13,0 7,3 15,5 16,8 15,2 14,0 12 6 24 13 ZZW 1023,4 40 0 0,0
20.05.2017 13:00:00 12,3 6,0 14,0 19,1 14,7 14,0 15 8 26 14 ZW 1023,0 10 23 0,0
20.05.2017 12:00:00 11,5 7,5 13,6 17,1 14,3 14,0 22 12 31 17 W 1022,8 40 25 0,0
20.05.2017 11:00:00 11,1 7,2 12,6 15,5 13,9 14,0 14 8 22 12 ZW 1022,5 40 9 0,0
20.05.2017 10:00:00 10,8 7,9 13,9 15,0 13,5 14,0 12 7 24 13 ZZW 1021,9 35 36 0,0
20.05.2017 09:00:00 10,0 8,5 11,5 12,8 13,2 13,9 9 5 15 8 ZZW 1021,6 10 27 0,0
20.05.2017 08:00:00 7,9 7,3 8,0 10,6 13,2 13,9 11 6 18 10 Z 1021,1 30 25 0,0
20.05.2017 07:00:00 7,4 7,0 6,5 9,3 13,4 13,9 6 4 15 8 W 1020,3 40 25 0,0
20.05.2017 06:00:00 7,2 7,0 6,8 9,3 13,5 13,9 8 4 13 7 ZZW 1019,9 40 0 0,0
20.05.2017 05:00:00 6,9 6,8 6,6 9,2 13,8 13,9 4 2 13 7 - 1019,6 10 0 0,0
20.05.2017 04:00:00 7,1 6,9 5,9 9,5 14,0 13,9 5 3 13 7 Z 1019,5 40 0 0,0
20.05.2017 03:00:00 6,9 6,7 5,4 9,3 14,3 13,9 10 6 20 11 ZW 1019,4 40 0 0,0
20.05.2017 02:00:00 7,3 7,0 5,9 9,8 14,7 13,9 12 7 29 16 ZW 1019,3 50 0 0,0
20.05.2017 01:00:00 7,4 7,1 5,3 10,2 15,0 13,9 8 5 18 10 ZW 1019,4 50 0 0,0
20.05.2017 00:00:00 8,0 7,6 6,6 11,0 15,4 13,9 10 5 18 10 Z 1018,9 50 0 0,0
19.05.2017 23:00:00 8,7 7,9 7,6 11,9 15,7 13,9 12 6 21 11 Z 1018,7 60 0 0,0
19.05.2017 22:00:00 9,3 8,2 7,9 12,9 15,9 13,8 8 4 32 17 Z 1018,1 70 0 0,0
19.05.2017 21:00:00 10,7 9,4 10,3 14,2 16,0 13,8 13 7 24 13 ZZW 1017,4 50 2 0,0
19.05.2017 20:00:00 11,5 9,6 11,2 15,2 16,0 13,8 16 9 26 14 ZW 1016,4 35 16 0,0
19.05.2017 19:00:00 11,4 9,4 11,8 16,1 15,9 13,8 20 11 29 15 ZW 1016,2 25 16 0,0
19.05.2017 18:00:00 10,6 9,5 11,5 15,3 15,8 13,8 17 9 24 13 WZW 1015,9 18 0 0,1
19.05.2017 17:00:00 10,4 9,9 11,3 14,6 15,7 13,8 14 8 29 16 W 1015,8 18 0 0,3
19.05.2017 16:00:00 10,1 9,5 11,1 14,7 15,7 13,8 21 11 31 17 WZW 1015,6 15 0 0,6
19.05.2017 15:00:00 9,5 9,3 10,4 13,3 15,9 13,7 21 11 35 19 W 1015,1 8 0 2,4
19.05.2017 14:00:00 9,5 9,4 9,9 13,1 16,1 13,7 21 11 31 17 W 1014,9 7 0 3,8
19.05.2017 13:00:00 9,6 9,6 10,1 13,1 16,4 13,7 18 10 29 16 W 1013,9 5 0 4,8
19.05.2017 12:00:00 9,7 9,6 10,0 13,7 16,7 13,7 21 11 31 17 W 1013,7 5 0 2,7
19.05.2017 11:00:00 10,1 10,0 10,5 13,9 17,0 13,7 18 10 28 15 W 1013,4 7 0 1,4
19.05.2017 10:00:00 10,0 9,9 10,5 14,0 17,3 13,7 21 11 27 14 W 1013,2 4,5 0 3,8
19.05.2017 09:00:00 10,2 10,1 10,4 14,2 17,6 13,7 16 9 22 12 W 1012,9 5 0 1,8
19.05.2017 08:00:00 10,4 10,2 10,6 14,5 17,9 13,6 16 9 28 15 W 1012,9 4,5 0 1,4
19.05.2017 07:00:00 10,7 10,3 10,8 14,8 18,3 13,6 16 9 36 20 W 1011,6 8 0 0,6
19.05.2017 06:00:00 11,4 10,8 11,3 15,5 18,6 13,6 21 12 35 19 W 1011,2 12 0 0,0
19.05.2017 05:00:00 13,2 12,9 13,2 16,6 18,8 13,6 18 10 29 16 W 1010,5 10 0 0,1
19.05.2017 04:00:00 14,6 14,2 14,4 16,9 19,1 13,6 9 5 18 10 W 1010,4 25 0 0,7
19.05.2017 03:00:00 14,7 14,5 14,6 17,2 19,3 13,6 8 4 23 12 WNW 1010,4 12 0 1,4
19.05.2017 02:00:00 14,8 14,5 14,8 17,6 19,6 13,5 6 3 8 4 O 1009,6 30 0 0,2
19.05.2017 01:00:00 15,6 14,6 14,8 18,0 20,0 13,5 6 4 44 24 ZW 1010,1 17 0 1,3
19.05.2017 00:00:00 17,8 14,7 16,2 18,8 20,3 13,5 18 10 27 15 ZZW 1010,2 20 0 0,1
18.05.2017 23:00:00 16,8 14,0 16,1 19,1 20,6 13,5 8 4 15 8 O 1009,4 10 0 0,0
18.05.2017 22:00:00 17,3 14,1 15,9 20,0 21,0 13,5 11 6 16 9 O 1009,5 10 0 0,0
18.05.2017 21:00:00 18,3 14,1 17,5 21,6 21,3 13,5 10 5 13 7 O 1009,4 50 0 0,0
18.05.2017 20:00:00 19,5 14,1 19,4 23,3 21,4 13,4 9 5 18 10 OZO 1009,8 50 5 0,0
18.05.2017 19:00:00 20,8 14,5 22,2 25,1 21,3 13,4 11 6 21 11 ZO 1010,1 40 32 0,0
18.05.2017 18:00:00 20,9 15,6 22,7 25,0 21,2 13,4 15 8 24 13 ZO 1010,7 10 0 0,0
18.05.2017 17:00:00 20,8 15,3 23,1 25,8 21,0 13,4 15 8 26 14 ZZO 1011,3 10 0 0,0
18.05.2017 16:00:00 21,2 15,2 24,4 27,1 20,5 13,4 16 9 24 13 ZZO 1011,8 10 9 0,0
18.05.2017 15:00:00 21,1 15,0 25,5 27,1 19,9 13,4 16 9 22 12 Z 1012,4 10 32 0,0
18.05.2017 14:00:00 21,3 17,9 29,0 24,4 19,5 13,3 11 6 21 11 OZO 1012,4 10 14 0,0
18.05.2017 13:00:00 19,6 15,6 21,5 21,8 19,2 13,3 9 5 19 10 Z 1013,8 10 0 0,0
18.05.2017 12:00:00 18,7 15,9 20,8 21,3 19,0 13,3 8 4 18 10 ZW 1013,9 10 0 0,0
18.05.2017 11:00:00 18,0 15,9 19,6 20,0 19,0 13,3 11 6 18 10 ZW 1014,4 10 0 0,2
18.05.2017 10:00:00 16,7 15,0 16,0 18,8 19,0 13,2 13 7 22 12 ZZW 1014,6 10 0 0,2
18.05.2017 09:00:00 17,7 14,5 18,2 18,9 19,0 13,2 16 8 21 11 ZW 1014,1 50 11 0,0
18.05.2017 08:00:00 17,4 14,3 17,1 17,6 19,1 13,2 4 2 11 6 Z 1013,4 50 23 0,0
18.05.2017 07:00:00 16,4 12,9 16,0 16,9 19,3 13,2 8 5 22 12 W 1013,1 50 37 0,0
18.05.2017 06:00:00 16,3 12,1 14,4 16,8 19,7 13,2 14 7 28 15 W 1012,8 50 0 0,0
18.05.2017 05:00:00 17,1 11,5 14,9 17,0 20,0 13,2 15 8 21 11 ZW 1012,3 50 0 0,0
18.05.2017 04:00:00 18,0 11,0 15,2 17,4 20,4 13,1 11 6 21 11 ZW 1012,1 10 0 0,0

tt = temperatuur
td = dauwpunt
tt 5cm = temperatuur 5cm
tt -5cm = temperatuur -5cm
tt -20cm = temperatuur -20cm
tt -100cm = temperatuur -100cm
ff = windsnelheid
fx = windstoten
dd = windrichting
ppp = luchtdruk
vv = zicht
sd = Zonneschijnduur
rr = neerslag

Weerstations in de omgeving